TimeCST,TemperatureF,Dew PointF,Humidity,Sea Level PressureIn,VisibilityMPH,Wind Direction,Wind SpeedMPH,Gust SpeedMPH,PrecipitationIn,Events,Conditions,WindDirDegrees,DateUTC
12:53 AM,35.6,32.0,87,30.03,10.0,WNW,8.1,-,N/A,,Clear,290,2012-02-01 06:53:00
1:53 AM,35.1,32.0,89,30.06,10.0,West,5.8,-,N/A,,Clear,280,2012-02-01 07:53:00
2:53 AM,32.0,30.0,92,30.07,10.0,WNW,5.8,-,N/A,,Clear,290,2012-02-01 08:53:00
3:53 AM,33.1,30.9,92,30.07,10.0,NW,9.2,-,N/A,,Clear,310,2012-02-01 09:53:00
4:53 AM,32.0,30.9,96,30.09,10.0,WNW,5.8,-,N/A,,Clear,290,2012-02-01 10:53:00
5:53 AM,28.9,28.9,100,30.10,7.0,WNW,5.8,-,N/A,,Clear,290,2012-02-01 11:53:00
6:53 AM,28.0,28.0,100,30.12,7.0,NW,5.8,-,N/A,,Clear,310,2012-02-01 12:53:00
7:53 AM,28.9,28.0,96,30.14,6.0,West,4.6,-,N/A,,Clear,260,2012-02-01 13:53:00
8:53 AM,34.0,32.0,92,30.14,7.0,WNW,5.8,-,N/A,,Clear,300,2012-02-01 14:53:00
9:53 AM,37.9,36.0,93,30.15,10.0,WNW,4.6,-,N/A,,Clear,300,2012-02-01 15:53:00
10:53 AM,44.1,37.0,76,30.16,10.0,Calm,Calm,-,N/A,,Clear,0,2012-02-01 16:53:00
11:53 AM,46.9,37.9,71,30.15,10.0,NW,6.9,-,N/A,,Clear,320,2012-02-01 17:53:00
12:53 PM,51.1,37.9,61,30.13,10.0,NW,4.6,-,N/A,,Clear,310,2012-02-01 18:53:00
1:53 PM,53.6,35.6,51,30.10,10.0,Calm,Calm,-,N/A,,Clear,0,2012-02-01 19:53:00
2:53 PM,53.1,36.0,52,30.11,10.0,Calm,Calm,-,N/A,,Clear,0,2012-02-01 20:53:00
3:53 PM,54.0,36.0,51,30.10,10.0,Calm,Calm,-,N/A,,Clear,0,2012-02-01 21:53:00
4:53 PM,50.0,37.4,62,30.10,10.0,East,5.8,-,N/A,,Clear,80,2012-02-01 22:53:00
5:53 PM,45.0,37.9,76,30.12,10.0,East,6.9,-,N/A,,Clear,90,2012-02-01 23:53:00
6:53 PM,42.1,36.0,79,30.13,10.0,East,6.9,-,N/A,,Clear,80,2012-02-02 00:53:00
7:53 PM,37.9,35.1,89,30.14,10.0,East,5.8,-,N/A,,Clear,100,2012-02-02 01:53:00
8:53 PM,37.0,34.0,89,30.15,9.0,East,6.9,-,N/A,,Clear,80,2012-02-02 02:53:00
9:53 PM,36.0,32.0,86,30.16,9.0,East,6.9,-,N/A,,Clear,90,2012-02-02 03:53:00
10:53 PM,30.9,28.9,92,30.16,8.0,SE,4.6,-,N/A,,Clear,140,2012-02-02 04:53:00
11:53 PM,35.1,33.1,92,30.17,8.0,ESE,4.6,-,N/A,,Clear,120,2012-02-02 05:53:00